Weather History for Detroit Metro, MI

Change the Weather History Date:

Wednesday, August 13, 2014

  Actual Average Record
Temperature  
Mean Temperature 68 °F 72 °F  
Max Temperature 78 °F 82 °F 96 °F (1944)
Min Temperature 57 °F 63 °F 47 °F (1967)
Degree Days  
Heating Degree Days 0 0  
Month to date heating degree days 0 0  
Since 1 June heating degree days 20 37  
Since 1 July heating degree days 8 2  
Cooling Degree Days 3 8  
Month to date cooling degree days 80 104  
Year to date cooling degree days 496 590  
Since 1 June cooling degree days 432 542  
Growing Degree Days 18 (Base 50)    
Moisture  
Dew Point 53 °F    
Average Humidity 64    
Maximum Humidity 87    
Minimum Humidity 40    
Precipitation  
Precipitation 0.00 in 0.09 in 2.18 in (1994)
Month to date precipitation 5.00 1.35  
Year to date precipitation 26.10 20.78  
Snow  
Snow 0.00 in 0.00 in 0.00 in ()
Month to date snowfall 0.0 0.0  
Since 1 June snowfall 0.0 0.0  
Since 1 July snowfall 0.0 0.0  
Snow Depth 0.00 in    
Sea Level Pressure  
Sea Level Pressure 29.92 in    
Wind  
Wind Speed 11 mph (WNW)    
Max Wind Speed 21 mph    
Max Gust Speed 29 mph    
Visibility 10 miles    
Events      
T = Trace of Precipitation, MM = Missing Value Source: NWS Daily Summary

Daily Weather History Graph

Daily Weather History Graph

Search for Another Location

Airport:

Trip Planner

Search our weather history database for the weather conditions in past years. The results will help you decide how hot, cold, wet, or windy it might be!

Date:

Astronomy

Aug. 13, 2014 Rise Set
Actual Time 6:38 AM EDT 8:36 PM EDT
Civil Twilight 6:08 AM EDT 9:07 PM EDT
Nautical Twilight 5:30 AM EDT 9:44 PM EDT
Astronomical Twilight 4:50 AM EDT 10:24 PM EDT
Moon 10:16 PM EDT (8/13) 10:10 AM EDT (8/13)
Length of Visible Light 14h 59m
Length of Day
13h 58m
Waning Gibbous, 88% of the Moon is Illuminated
Aug 13
Waning Gibbous
Aug 17
Last Quarter
Aug 25
New
Sep 2
First Quarter
Sep 8
Full

Hourly Weather History & Observations

Time (EDT) Temp. Dew Point Humidity Pressure Visibility Wind Dir Wind Speed Gust Speed Precip Events Conditions
12:36 AM 62.6 °F 57.2 °F 82% 29.86 in 10.0 mi West 8.1 mph - N/A   Overcast
12:53 AM 63.0 °F 57.9 °F 84% 29.86 in 10.0 mi WNW 10.4 mph - N/A   Overcast
1:22 AM 62.6 °F 57.2 °F 82% 29.87 in 10.0 mi West 15.0 mph - N/A   Overcast
1:53 AM 60.8 °F 55.4 °F 82% 29.87 in 10.0 mi West 9.2 mph 18.4 mph N/A   Overcast
2:53 AM 61.0 °F 55.9 °F 83% 29.87 in 10.0 mi WNW 10.4 mph - N/A   Overcast
3:18 AM 60.8 °F 55.4 °F 82% 29.88 in 10.0 mi WNW 9.2 mph - N/A   Overcast
3:53 AM 59.0 °F 55.0 °F 87% 29.87 in 10.0 mi West 9.2 mph - N/A   Overcast
4:39 AM 57.2 °F 53.6 °F 88% 29.88 in 10.0 mi West 8.1 mph - N/A   Mostly Cloudy
4:53 AM 57.9 °F 53.1 °F 84% 29.88 in 10.0 mi West 8.1 mph - N/A   Mostly Cloudy
5:53 AM 57.0 °F 53.1 °F 87% 29.88 in 10.0 mi West 8.1 mph - N/A   Scattered Clouds
6:53 AM 57.0 °F 51.1 °F 81% 29.90 in 10.0 mi West 11.5 mph - N/A   Partly Cloudy
9:53 AM 66.0 °F 53.1 °F 63% 29.94 in 10.0 mi WNW 11.5 mph - N/A   Clear
10:53 AM 69.8 °F 53.6 °F 56% 29.96 in 10.0 mi NW 13.8 mph 20.7 mph N/A   Partly Cloudy
11:53 AM 71.1 °F 52.0 °F 51% 29.96 in 10.0 mi West 16.1 mph 21.9 mph N/A   Partly Cloudy
12:53 PM 73.0 °F 51.1 °F 46% 29.95 in 10.0 mi West 17.3 mph 23.0 mph N/A   Partly Cloudy
1:53 PM 73.9 °F 48.9 °F 41% 29.94 in 10.0 mi NW 19.6 mph 28.8 mph N/A   Partly Cloudy
2:53 PM 75.9 °F 52.0 °F 43% 29.94 in 10.0 mi WNW 15.0 mph 25.3 mph N/A   Scattered Clouds
3:53 PM 75.2 °F 51.8 °F 44% 29.95 in 10.0 mi WNW 15.0 mph - N/A   Scattered Clouds
4:53 PM 77.0 °F 52.0 °F 42% 29.94 in 10.0 mi WNW 12.7 mph - N/A   Scattered Clouds
5:53 PM 75.9 °F 52.0 °F 43% 29.94 in 10.0 mi NW 9.2 mph 16.1 mph N/A   Scattered Clouds
6:53 PM 75.0 °F 51.1 °F 43% 29.95 in 10.0 mi NW 9.2 mph - N/A   Partly Cloudy
7:53 PM 71.1 °F 51.1 °F 49% 29.95 in 10.0 mi NW 5.8 mph - N/A   Scattered Clouds
8:53 PM 69.1 °F 51.1 °F 53% 29.95 in 10.0 mi NW 4.6 mph - N/A   Mostly Cloudy
9:53 PM 69.1 °F 53.1 °F 57% 29.96 in 10.0 mi WNW 3.5 mph - N/A   Mostly Cloudy
10:53 PM 64.9 °F 53.1 °F 65% 29.96 in 10.0 mi WNW 4.6 mph - N/A   Scattered Clouds